星链-2249 (STARLINK-2249 )

导读 | 豆包AI

STARLINK-2249是美国太空探索技术公司(SpaceX)星链(Starlink)项目卫星,于2021年5月15日发射升空。该卫星运行在近地轨道,轨道倾角约53度,属于星链互联网星座的组成部分,旨在为全球提供高速低延迟卫星互联网服务,当前处于在轨工作状态,是星链大规模低轨星座部署中的一员。

基本信息
目录编号:
48592
目录名称:
STARLINK-2249
国际标识:
2021-041AR
轨道中心:
EARTH
卫星名称:
星链-2249
卫星全名:
星链-2249 (STARLINK-2249 )
卫星状态:
在轨 (已飞行1811 天)
发射日期:
2021-05-15 UTC
国别 :
美国 (US)
星等 :
--
轨道信息
数据来源 国际轨道数据
星历时间: 2026-04-30T12:00:01+0800
8小时前
查看轨道信息
半长轴: 6728.797km
偏心率: 0.0001008
轨道倾角: 53.053°
近地点辐角 91.458°
升交点赤经 261.755°
平近点角 251.643°
近地点: 349.981km
远地点: 351.339km
周期: 91.552分钟
每日圈数: 15.728838
详细信息
固有亮度:
5
最大亮度:
2.5
卫星平台:
Starlink V1.0
覆盖范围:
全球
运营商:
太空探索技术公司
运营商所在国:
美国
制造商(研发单位):
太空探索技术公司
制造商所在国:
美国
使用方式:
暂无
卫星简介
星链(Starlink)计划是由太空探索技术公司(SpaceX)提出的一个巨型低轨卫星互联网星座项目,计划在2019年至2024年间在太空搭建由约1.2万颗卫星组成的“星链”网络,其中1584颗将部署在地球上空550千米处的近地轨道,并从2020年开始工作。该卫星仍在工作。
2D轨道图
3D轨道图
轨道高度分析图
轨道倾角分析图
轨道综合分析图
查看轨道综合分析图